Weather History for Lakeview AWS, OR

Change the Weather History Date:

Tuesday, July 2, 2013

  Actual Average Record
Temperature  
Mean Temperature 78 °F -  
Max Temperature 98 °F 77 °F 98 °F (2013)
Min Temperature 59 °F 48 °F 34 °F (1955)
Cooling Degree Days 14    
Growing Degree Days 28 (Base 50)    
Moisture  
Dew Point 52 °F    
Average Humidity 48    
Maximum Humidity 88    
Minimum Humidity 15    
Precipitation  
Precipitation 0.00 in - - ()
Sea Level Pressure  
Sea Level Pressure 30.21 in    
Wind  
Wind Speed 7 mph (North)    
Max Wind Speed 26 mph    
Max Gust Speed 36 mph    
Visibility 10 miles    
Events Thunderstorm    
Averages and records for this station are not official NWS values.
T = Trace of Precipitation, MM = Missing Value Source: NWS Daily Summary

Daily Weather History Graph

Daily Weather History Graph

Search for Another Location

Airport:

Trip Planner

Search our weather history database for the weather conditions in past years. The results will help you decide how hot, cold, wet, or windy it might be!

Date:

Astronomy

Jul. 02, 2013 Rise Set
Actual Time 5:29 AM PDT 8:41 PM PDT
Civil Twilight 4:55 AM PDT 9:15 PM PDT
Nautical Twilight 4:11 AM PDT 9:59 PM PDT
Astronomical Twilight 3:18 AM PDT 10:52 PM PDT
Moon 1:38 AM PDT (7/2) 3:57 PM PDT (7/2)
Length of Visible Light 16h 19m
Length of Day
15h 11m
Waning Crescent, 25% of the Moon is Illuminated
Jul 2
Waning Crescent
Jul 8
New
Jul 15
First Quarter
Jul 22
Full
Jul 29
Last Quarter

Hourly Weather History & Observations

Time (PDT) Temp. Heat Index Dew Point Humidity Pressure Visibility Wind Dir Wind Speed Gust Speed Precip Events Conditions
12:15 AM 62.6 °F - 48.2 °F 59% 30.21 in 10.0 mi WNW 9.2 mph - N/A   Clear
12:35 AM 62.6 °F - 48.2 °F 59% 30.21 in 10.0 mi NW 10.4 mph - N/A   Clear
12:55 AM 66.2 °F - 51.8 °F 60% 30.21 in 10.0 mi NNW 8.1 mph - N/A   Clear
1:15 AM 64.4 °F - 51.8 °F 64% 30.22 in 10.0 mi NNE 3.5 mph - N/A   Clear
1:35 AM 66.2 °F - 48.2 °F 52% 30.23 in 10.0 mi East 9.2 mph - N/A   Clear
1:55 AM 66.2 °F - 48.2 °F 52% 30.23 in 10.0 mi Calm Calm - N/A   Clear
2:15 AM 71.6 °F - 46.4 °F 41% 30.23 in 10.0 mi Calm Calm - N/A   Clear
2:35 AM 68.0 °F - 53.6 °F 60% 30.22 in 10.0 mi NNW 12.7 mph - N/A   Clear
2:55 AM 68.0 °F - 53.6 °F 60% 30.22 in 10.0 mi NNW 8.1 mph - N/A   Clear
3:15 AM 66.2 °F - 53.6 °F 64% 30.22 in 10.0 mi NNW 11.5 mph - N/A   Clear
3:35 AM 66.2 °F - 53.6 °F 64% 30.22 in 10.0 mi NNW 11.5 mph - N/A   Clear
3:55 AM 66.2 °F - 53.6 °F 64% 30.21 in 10.0 mi NNW 9.2 mph - N/A   Clear
4:15 AM 64.4 °F - 53.6 °F 68% 30.21 in 10.0 mi NNW 8.1 mph - N/A   Clear
4:35 AM 64.4 °F - 53.6 °F 68% 30.21 in 10.0 mi NNW 9.2 mph - N/A   Clear
4:55 AM 62.6 °F - 51.8 °F 68% 30.21 in 10.0 mi North 6.9 mph - N/A   Clear
5:15 AM 60.8 °F - 51.8 °F 72% 30.22 in 10.0 mi North 6.9 mph - N/A   Clear
5:35 AM 59.0 °F - 51.8 °F 77% 30.21 in 10.0 mi North 9.2 mph - N/A   Clear
5:55 AM 59.0 °F - 51.8 °F 77% 30.21 in 10.0 mi NNW 6.9 mph - N/A   Clear
6:15 AM 60.8 °F - 53.6 °F 77% 30.22 in 10.0 mi NNW 5.8 mph - N/A   Clear
6:35 AM 60.8 °F - 53.6 °F 77% 30.22 in 10.0 mi NE 5.8 mph - N/A   Clear
7:15 AM 64.4 °F - 55.4 °F 73% 30.23 in 10.0 mi Calm Calm - N/A   Clear
7:35 AM 66.2 °F - 53.6 °F 64% 30.23 in 10.0 mi Calm Calm - N/A   Clear
7:55 AM 66.2 °F - 55.4 °F 68% 30.23 in 10.0 mi NE 3.5 mph - N/A   Clear
8:15 AM 71.6 °F - 53.6 °F 53% 30.23 in 10.0 mi Calm Calm - N/A   Clear
8:35 AM 71.6 °F - 53.6 °F 53% 30.22 in 10.0 mi Calm Calm - N/A   Clear
8:55 AM 73.4 °F - 53.6 °F 50% 30.22 in 10.0 mi Calm Calm - N/A   Clear
9:15 AM 77.0 °F - 53.6 °F 44% 30.22 in 10.0 mi SSE 3.5 mph - N/A   Clear
9:35 AM 78.8 °F - 53.6 °F 42% 30.21 in 10.0 mi ESE 3.5 mph - N/A   Clear
9:55 AM 80.6 °F 80.3 °F 53.6 °F 39% 30.21 in 10.0 mi Calm Calm - N/A   Clear
10:15 AM 80.6 °F 80.5 °F 55.4 °F 42% 30.21 in 10.0 mi ESE 5.8 mph - N/A   Clear
10:35 AM 82.4 °F 81.7 °F 55.4 °F 39% 30.21 in 10.0 mi ESE 4.6 mph - N/A   Clear
10:55 AM 84.2 °F 83.0 °F 55.4 °F 37% 30.21 in 10.0 mi ENE 3.5 mph - N/A   Clear
11:15 AM 86.0 °F 84.5 °F 55.4 °F 35% 30.21 in 10.0 mi East 3.5 mph - N/A   Clear
11:35 AM 89.6 °F 87.3 °F 53.6 °F 29% 30.21 in 10.0 mi East 4.6 mph - N/A   Clear
11:55 AM 89.6 °F 87.3 °F 53.6 °F 29% 30.21 in 10.0 mi East 3.5 mph - N/A   Clear
12:15 PM 91.4 °F 89.9 °F 57.2 °F 31% 30.20 in 10.0 mi SE 5.8 mph - N/A   Clear
12:35 PM 93.2 °F - 48.2 °F 21% 30.20 in 10.0 mi East 4.6 mph - N/A   Clear
12:55 PM 93.2 °F - 48.2 °F 21% 30.20 in 10.0 mi WSW 5.8 mph - N/A   Clear
1:15 PM 96.8 °F - 46.4 °F 18% 30.20 in 10.0 mi North 5.8 mph 16.1 mph N/A   Clear
1:35 PM 96.8 °F - 46.4 °F 18% 30.19 in 10.0 mi NNW 8.1 mph - N/A   Clear
1:55 PM 96.8 °F - 44.6 °F 17% 30.19 in 10.0 mi North 6.9 mph - N/A   Clear
2:15 PM 96.8 °F - 44.6 °F 17% 30.19 in 10.0 mi NW 12.7 mph - N/A   Clear
2:35 PM 98.6 °F - 44.6 °F 16% 30.18 in 10.0 mi NW 9.2 mph - N/A   Clear
2:55 PM 98.6 °F - 44.6 °F 16% 30.17 in 10.0 mi North 9.2 mph - N/A   Clear
3:15 PM 98.6 °F - 42.8 °F 15% 30.17 in 10.0 mi NNE 5.8 mph - N/A   Clear
3:35 PM 96.8 °F - 42.8 °F 16% 30.16 in 10.0 mi Calm Calm - N/A   Clear
3:55 PM 98.6 °F - 44.6 °F 16% 30.16 in 10.0 mi NW 12.7 mph - N/A   Clear
4:15 PM 96.8 °F - 46.4 °F 18% 30.15 in 10.0 mi NNW 11.5 mph - N/A   Clear
4:35 PM 96.8 °F - 48.2 °F 19% 30.15 in 10.0 mi NNW 11.5 mph - N/A   Clear
4:55 PM 96.8 °F - 48.2 °F 19% 30.14 in 10.0 mi North 13.8 mph 19.6 mph N/A   Clear
5:15 PM 96.8 °F - 48.2 °F 19% 30.13 in 10.0 mi North 12.7 mph 18.4 mph N/A   Clear
5:35 PM 93.2 °F - 48.2 °F 21% 30.13 in 10.0 mi NNW 11.5 mph - N/A   Clear
5:55 PM 91.4 °F - 50.0 °F 24% 30.14 in 10.0 mi North 12.7 mph - N/A   Clear
6:15 PM 89.6 °F - 48.2 °F 24% 30.13 in 10.0 mi North 9.2 mph - N/A   Clear
6:35 PM 87.8 °F 85.7 °F 53.6 °F 31% 30.13 in 10.0 mi NNW 9.2 mph - N/A   Clear
6:55 PM 86.0 °F 84.2 °F 53.6 °F 33% 30.13 in 10.0 mi NNW 6.9 mph - N/A   Clear
7:15 PM 86.0 °F 84.5 °F 55.4 °F 35% 30.14 in 10.0 mi WNW 5.8 mph - N/A   Clear
7:35 PM 84.2 °F 83.0 °F 55.4 °F 37% 30.14 in 10.0 mi NW 6.9 mph - N/A   Clear
7:55 PM 82.4 °F 81.4 °F 53.6 °F 37% 30.17 in 9.0 mi South 26.5 mph 35.7 mph N/A   Mostly Cloudy
8:15 PM 73.4 °F - 57.2 °F 57% 30.22 in 10.0 mi SE 20.7 mph 29.9 mph N/A   Overcast
8:35 PM 69.8 °F - 57.2 °F 64% 30.25 in 10.0 mi South 16.1 mph - N/A Thunderstorm Overcast
8:55 PM 68.0 °F - 59.0 °F 73% 30.27 in 10.0 mi SSW 23.0 mph 28.8 mph N/A Thunderstorm Overcast
9:15 PM 68.0 °F - 57.2 °F 68% 30.30 in 10.0 mi WSW 17.3 mph 23.0 mph N/A Thunderstorm Overcast
9:35 PM 66.2 °F - 57.2 °F 73% 30.30 in 10.0 mi WSW 9.2 mph - N/A   Overcast
9:55 PM 66.2 °F - 57.2 °F 73% 30.30 in 10.0 mi NW 5.8 mph - N/A   Overcast
10:15 PM 66.2 °F - 59.0 °F 78% 30.30 in 10.0 mi ESE 4.6 mph - N/A   Overcast
10:35 PM 66.2 °F - 57.2 °F 73% 30.29 in 10.0 mi ESE 8.1 mph - N/A   Overcast
10:55 PM 66.2 °F - 57.2 °F 73% 30.30 in 10.0 mi SSE 3.5 mph - N/A   Overcast
11:15 PM 66.2 °F - 59.0 °F 78% 30.31 in 10.0 mi WNW 3.5 mph - N/A   Overcast
11:35 PM 64.4 °F - 60.8 °F 88% 30.32 in 10.0 mi SSW 5.8 mph - N/A   Overcast
11:55 PM 64.4 °F - 60.8 °F 88% 30.32 in 10.0 mi NNW 12.7 mph - N/A   Overcast